[[{"header":{"parameterUnit":"m.s-1","parameterCategory":1,"la1":30.2992,"la2":30.254,"lo1":-89.0895,"lo2":-89.0443,"dy":0.0025,"dx":0.0025,"nx":19,"ny":19,"refTime":"2026-04-09T09:00:00:Z","depth":0,"parameterNumber":2,"parameterNumberName":"U-component_of_WINDS"},"data":[0,0,0,-7.9913,-7.9916,-8.0058,-8.0058,-8.028,-8.0283,0,0,0,0,0,0,0,0,0,0,0,-7.9896,-7.9898,-7.9912,-7.9917,-8.0058,-8.0058,-8.028,-8.0283,0,0,0,0,0,0,0,0,0,0,0,-7.9895,-7.9898,-7.9901,-7.9917,-8.0058,-8.0058,-8.0279,-8.0158,0,0,0,0,0,0,0,0,0,0,-8.0014,-8.0023,-7.9897,-7.9901,-7.9918,-8.0057,-8.0058,-8.0151,-8.0165,-8.0234,0,-8.0302,0,-8.0296,-8.03,-8.0301,0,0,0,-7.9898,-8.0011,-8.0027,-7.9901,-7.992,-8.0057,-7.9989,-8.0159,-8.0175,-8.0253,-8.0305,-8.0312,-8.03,-8.0302,-8.0303,-8.0763,-8.0766,0,0,-7.989,-7.9935,-8.0016,-8.0038,-8.0019,-7.9984,-7.9993,-8.0168,-8.0227,-8.0305,-8.0316,-8.0303,-8.0304,-8.0306,-8.076,-8.0764,0,0,0,-7.988,-7.993,-7.994,-8.003,-8.0053,-7.9989,-7.9999,-8.0219,-8.0218,-8.0318,-8.0306,-8.0305,-8.0308,-8.0757,-8.0762,-8.0956,0,0,0,-7.9875,-7.9924,-7.9938,-7.9967,-8.005,-8.0138,-8.0047,-8.0206,-8.0225,-8.0305,-8.0305,-8.0311,-8.0754,-8.076,-8.0944,-8.1041,0,0,0,-7.9878,-7.9924,-7.9954,-7.9969,-8.0031,-8.0134,-8.0143,-8.0209,-8.0219,-8.0301,-8.0312,-8.0751,-8.0759,-8.0932,-8.1022,-8.1176,0,0,0,-7.9895,-8.0123,-7.9957,-8.0208,-8.0031,-8.0253,-8.0141,-8.0304,-8.0398,-8.0306,-8.0754,-8.0761,-8.0929,-8.1011,-8.1165,-8.1315,-8.1381,0,0,-8.0208,-8.0163,-8.0307,-8.0162,-8.0426,-8.0228,-8.052,-8.0563,-8.0529,-8.0687,-8.0698,-8.0948,-8.1021,-8.1174,-8.1737,-8.179,0,0,0,-8.0421,-8.0525,-8.0585,-8.0678,-8.0717,-8.0759,-8.0753,-8.077,-8.0902,-8.062,-8.1043,-8.1085,-8.1173,-8.1243,-8.1288,-8.1361,-8.0795,-8.0794,-8.0794,-8.0929,-8.0875,-8.111,-8.1074,-8.1165,-8.1158,-8.1227,-8.1248,-8.1165,-8.1267,-8.1313,-8.1662,-8.1745,-8.1779,-8.1856,-8.1387,-8.1388,-8.1389,-8.1389,-8.1384,-8.1523,-8.141,-8.1598,-8.154,-8.1697,-8.17,-8.1637,-8.1775,-8.1621,-8.1696,-8.1533,-8.1839,-8.1903,-8.1403,-8.1401,-8.1399,-8.1398,-8.1397,-8.1711,-8.1768,-8.1785,-8.1915,-8.2021,-8.1976,-8.2115,-8.2056,-8.2002,-8.2076,-8.212,-8.2117,-8.2107,-8.2101,-8.2102,-8.2103,-8.2104,-8.2105,-8.2106,-8.2044,-8.2056,-8.2181,-8.2244,-8.2296,-8.2358,-8.2355,-8.2405,-8.2446,-8.2393,-8.2393,-8.2302,-8.1878,-8.1774,-8.2125,-8.2121,-8.2119,-8.2117,-8.2116,-8.2526,-8.2408,-8.26,-8.2654,-8.2724,-8.2834,-8.2758,-8.2867,-8.2899,-8.2971,-8.2864,-8.256,-8.2509,-8.2473,-8.2386,-8.2874,-8.2874,-8.2874,-8.2874,-8.2803,-8.2772,-8.2956,-8.3045,-8.3126,-8.3078,-8.3298,-8.3299,-8.3281,-8.3298,-8.3219,-8.3099,-8.3064,-8.3034,-8.2985,-8.2903,-8.3512,-8.3513,-8.3513,-8.3097,-8.3071,-8.327,-8.3251,-8.3302,-8.3348,-8.3554,-8.3662,-8.3616,-8.3538,-8.3311,-8.3284,-8.3089,-8.3028,-8.2945,-8.287,-8.2719,0,0]},{"header":{"parameterUnit":"m.s-1","parameterCategory":1,"la1":30.2992,"la2":30.254,"lo1":-89.0895,"lo2":-89.0443,"dy":0.0025,"dx":0.0025,"nx":19,"ny":19,"refTime":"2026-04-09T09:00:00:Z","depth":0,"parameterNumber":3,"parameterNumberName":"V-component_of_WINDS"},"data":[0,0,0,-0.3712,-0.3713,-0.3754,-0.3754,-0.3811,-0.3811,0,0,0,0,0,0,0,0,0,0,0,-0.3702,-0.3703,-0.3712,-0.3713,-0.3754,-0.3754,-0.3811,-0.3811,0,0,0,0,0,0,0,0,0,0,0,-0.3702,-0.3703,-0.3703,-0.3713,-0.3754,-0.3754,-0.3811,-0.3778,0,0,0,0,0,0,0,0,0,0,-0.3738,-0.3731,-0.3703,-0.3703,-0.3714,-0.3754,-0.3754,-0.3777,-0.378,-0.3794,0,-0.3806,0,-0.381,-0.3815,-0.3816,0,0,0,-0.3712,-0.3728,-0.3737,-0.3703,-0.3714,-0.3754,-0.3735,-0.3779,-0.3783,-0.3799,-0.3807,-0.3809,-0.3811,-0.3816,-0.3816,-0.3897,-0.3897,0,0,-0.371,-0.3711,-0.3734,-0.374,-0.3733,-0.3734,-0.3737,-0.3781,-0.3791,-0.3807,-0.381,-0.3812,-0.3816,-0.3817,-0.3897,-0.3897,0,0,0,-0.3704,-0.371,-0.3717,-0.3737,-0.3744,-0.3735,-0.3738,-0.3789,-0.3791,-0.3811,-0.3812,-0.3817,-0.3817,-0.3896,-0.3897,-0.392,0,0,0,-0.3703,-0.3707,-0.3716,-0.3718,-0.3744,-0.3767,-0.3745,-0.3788,-0.3793,-0.3812,-0.3817,-0.3818,-0.3896,-0.3896,-0.3919,-0.3932,0,0,0,-0.3699,-0.3706,-0.3713,-0.3718,-0.3735,-0.3766,-0.3771,-0.3789,-0.3794,-0.3816,-0.3818,-0.3895,-0.3896,-0.3917,-0.3929,-0.3953,0,0,0,-0.3696,-0.3734,-0.3713,-0.3756,-0.3735,-0.378,-0.3771,-0.3804,-0.3826,-0.3817,-0.3896,-0.3897,-0.3917,-0.3928,-0.3952,-0.3974,-0.3984,0,0,-0.3745,-0.374,-0.3765,-0.3747,-0.3796,-0.3774,-0.3826,-0.3845,-0.3846,-0.388,-0.3882,-0.3919,-0.3929,-0.3953,-0.4035,-0.4042,0,0,0,-0.3781,-0.3799,-0.3812,-0.3832,-0.3846,-0.3859,-0.3869,-0.3875,-0.3904,-0.3863,-0.3934,-0.394,-0.3954,-0.3965,-0.3971,-0.3983,-0.3902,-0.3901,-0.3901,-0.3855,-0.3853,-0.3893,-0.3895,-0.3915,-0.3923,-0.3939,-0.3949,-0.3942,-0.3959,-0.397,-0.4019,-0.4032,-0.4037,-0.4049,-0.3981,-0.3981,-0.3981,-0.3981,-0.3928,-0.3953,-0.394,-0.3975,-0.3972,-0.4002,-0.4011,-0.4004,-0.4032,-0.4011,-0.4024,-0.4002,-0.4045,-0.4056,-0.3983,-0.3982,-0.3982,-0.3982,-0.3982,-0.3977,-0.3988,-0.3994,-0.4021,-0.4042,-0.4042,-0.4068,-0.4065,-0.4062,-0.4073,-0.4084,-0.4084,-0.4083,-0.4078,-0.4079,-0.4079,-0.4079,-0.4079,-0.4079,-0.4025,-0.4031,-0.4053,-0.4069,-0.408,-0.4095,-0.4102,-0.4113,-0.4125,-0.412,-0.412,-0.4111,-0.4049,-0.4034,-0.4082,-0.4081,-0.4081,-0.4081,-0.4081,-0.4101,-0.4083,-0.4117,-0.4128,-0.4146,-0.4167,-0.416,-0.4183,-0.4191,-0.4204,-0.4192,-0.4146,-0.4141,-0.4136,-0.4124,-0.4192,-0.4192,-0.4192,-0.4192,-0.4143,-0.4139,-0.4173,-0.419,-0.4207,-0.4204,-0.4242,-0.4248,-0.425,-0.4255,-0.4244,-0.4227,-0.4222,-0.422,-0.4213,-0.4202,-0.4288,-0.4288,-0.4289,-0.419,-0.4187,-0.4221,-0.4222,-0.4235,-0.4246,-0.4281,-0.4302,-0.4302,-0.4292,-0.4259,-0.4255,-0.4227,-0.4218,-0.421,-0.4199,-0.4178,0,0]}]]